This is the latest recevied weather packets stored in our database for station/object W4ZHA. If no packets are shown the sender has not sent any weather packets the latest 10 day(s).
| Time | Temp. | Humidity | Pressure | Rain* | Wind** | Luminosity | Snow |
|---|---|---|---|---|---|---|---|
| 1788107559 | 30.56° C | 57% | 1022.8 hPa | 0 mm | - | 432 W/m² | - |
| 1788107253 | 29.44° C | 60% | 1022.8 hPa | 0 mm | - | 423 W/m² | - |
| 1788106950 | 28.89° C | 62% | 1022.8 hPa | 0 mm | - | 108 W/m² | - |
| 1788106645 | 28.33° C | 61% | 1022.8 hPa | 0 mm | - | 90 W/m² | - |
| 1788106339 | 28.89° C | 62% | 1023.1 hPa | 0 mm | - | 386 W/m² | - |
| 1788106035 | 28.89° C | 62% | 1023.1 hPa | 0 mm | - | 360 W/m² | - |
| 1788105735 | 28.33° C | 62% | 1022.8 hPa | 0 mm | - | 138 W/m² | - |
| 1788105432 | 28.33° C | 62% | 1022.8 hPa | 0 mm | - | 117 W/m² | - |
| 1788105127 | 27.78° C | 64% | 1022.8 hPa | 0 mm | - | 152 W/m² | - |
| 1788104822 | 27.78° C | 63% | 1023.1 hPa | 0 mm | - | 97 W/m² | - |
| 1788104518 | 27.78° C | 63% | 1023.1 hPa | 0 mm | - | 113 W/m² | - |
| 1788104215 | 27.78° C | 63% | 1023.1 hPa | 0 mm | - | 131 W/m² | - |
| 1788103914 | 27.78° C | 64% | 1022.8 hPa | 0 mm | - | 97 W/m² | - |
| 1788103613 | 27.22° C | 64% | 1023.1 hPa | 0 mm | - | 138 W/m² | - |
| 1788103312 | 27.78° C | 63% | 1023.1 hPa | 0 mm | - | 123 W/m² | - |
| 1788103008 | 27.22° C | 64% | 1023.1 hPa | 0 mm | - | 116 W/m² | - |
| 1788102707 | 27.78° C | 65% | 1023.1 hPa | 0 mm | - | 90 W/m² | - |
| 1788102402 | 26.67° C | 64% | 1023.5 hPa | 0 mm | - | 150 W/m² | - |
| 1788102096 | 27.78° C | 64% | 1023.1 hPa | 0 mm | - | 120 W/m² | - |
| 1788101796 | 27.78° C | 63% | 1023.1 hPa | 0 mm | - | 114 W/m² | - |
| 1788101491 | 27.78° C | 64% | 1023.5 hPa | 0 mm | - | 133 W/m² | - |
| 1788101187 | 26.67° C | 65% | 1023.1 hPa | 0 mm | - | 112 W/m² | - |
| 1788100882 | 27.22° C | 64% | 1023.1 hPa | 0 mm | - | 100 W/m² | - |
| 1788100579 | 26.67° C | 65% | 1023.1 hPa | 0 mm | - | 139 W/m² | - |
| 1788100276 | 26.11° C | 65% | 1023.1 hPa | 0 mm | - | 117 W/m² | - |
* Rain latest hour (hover to see other rain measurements)
** Current wind speed in m/s (hover to see current wind gust speed)